Flight Information

DEPARTURE
EVERETT, WA
Elevation:
606
Runways:
16R/34L - 9010x150 - ASPH-CONC-G
16L/34R - 3004x75 - ASPH-G
Tower:
132.95
DESTINATION
,
Elevation:
TPA:
1000 (est.)


6658.5 NM65° True-20° Var44° HDG

Flight Plan:
(click to file on line)

1. Type
2. Aircraft Identification
3. Aircraft Type / Special Equipment
4. True Airspeed
kts
5. Departure Airport
(ICAO code)
6. Arriving Airport
(ICAO code)
7. Cruising Altitude
ft
8. Alternate Airport
(ICAO code)
9. Route of Flight
10. Remarks


00:00:00 Departure ATIS: Destination ATIS:

Clearance Limit:
Route:
Altitude: Expect in minutes
Frequency:
Transponder: (7500 Hijack / 7600 Lost Comms / 7700 Emergency)


KPAE 282053Z 15007KT 10SM CLR 07/M04 A3029 RMK AO2 SLP261 T00721039 58012
Time: 2022-01-28T20:53:00Z
1643405535
Winds: 150 @ 7 kts
Visibility: 10.0 sm
Clouds (AGL): CLR
Temperature: 7.2 C
Dew Point: -3.9 C
Pressure: 30.28937 in Hgbr


Notes:

Data extracted from FAA Digital Chart Supplement. Effective: 0901Z Thursday, DEC 2, 2021 to 0901Z Thursday, JAN 27, 2022
Current ATIS data is provided courtisy of PilotEdge.